[keps] orb10014.amsat

Ray Hoad r.hoad at att.net
Thu Jan 14 18:51:04 PST 2010


SB KEPS @ AMSAT  $ORB10014.O
Orbital Elements  10014.OSCAR

HR AMSAT ORBITAL ELEMENTS FOR OSCAR SATELLITES
FROM WA5QGD FORT WORTH,TX January 14, 2010
Send Subscribe/unsubscribe to KEPS at 
http://www.amsat.org/mailman/listinfo/keps
BID: ORB10014.O
TO ALL RADIO AMATEURS BT

Satellite: AO-07
Catalog number: 07530
Epoch time:      10013.85731582
Element set:     678
Inclination:      101.4118 deg
RA of node:       035.6616 deg
Eccentricity:    0.0011917
Arg of perigee:   216.2226 deg
Mean anomaly:     143.8039 deg
Mean motion:   12.53577424 rev/day
Decay rate:       -2.7e-07 rev/day^2
Epoch rev:           60911
Checksum:              276

Satellite: FO-29
Catalog number: 24278
Epoch time:      10014.72820539
Element set:     220
Inclination:      098.5231 deg
RA of node:       224.9973 deg
Eccentricity:    0.0350698
Arg of perigee:   161.8244 deg
Mean anomaly:     199.5807 deg
Mean motion:   13.52946117 rev/day
Decay rate:       -7.4e-07 rev/day^2
Epoch rev:           66235
Checksum:              324

Satellite: SO-33
Catalog number: 25509
Epoch time:      10013.93240210
Element set:    0630
Inclination:      031.4355 deg
RA of node:       300.8009 deg
Eccentricity:    0.0354410
Arg of perigee:   021.1091 deg
Mean anomaly:     340.3768 deg
Mean motion:   14.28278451 rev/day
Decay rate:       2.21e-06 rev/day^2
Epoch rev:           58598
Checksum:              257

Satellite: RS-22
Catalog number: 27939
Epoch time:      10014.69020870
Element set:     987
Inclination:      097.9150 deg
RA of node:       246.4782 deg
Eccentricity:    0.0013453
Arg of perigee:   180.7649 deg
Mean anomaly:     179.3536 deg
Mean motion:   14.63373159 rev/day
Decay rate:       1.03e-06 rev/day^2
Epoch rev:           33650
Checksum:              318

Satellite: VO-52
Catalog number: 28650
Epoch time:      10014.70332337
Element set:     411
Inclination:      097.7153 deg
RA of node:       073.9619 deg
Eccentricity:    0.0028168
Arg of perigee:   059.6060 deg
Mean anomaly:     300.7928 deg
Mean motion:   14.81666284 rev/day
Decay rate:      -1.41e-06 rev/day^2
Epoch rev:           25396
Checksum:              303

Satellite: SO-67
Catalog number: 35870
Epoch time:      10014.75156313
Element set:     353
Inclination:      097.3562 deg
RA of node:       067.4895 deg
Eccentricity:    0.0010314
Arg of perigee:   232.2713 deg
Mean anomaly:     267.0054 deg
Mean motion:   15.22918367 rev/day
Decay rate:       5.44e-06 rev/day^2
Epoch rev:            1811
Checksum:              286

Satellite: HO-68
Catalog number: 36122
Epoch time:      10014.71167106
Element set:      91
Inclination:      100.4937 deg
RA of node:       076.5638 deg
Eccentricity:    0.0007567
Arg of perigee:   328.4904 deg
Mean anomaly:     031.5744 deg
Mean motion:   13.16279815 rev/day
Decay rate:       -4.5e-07 rev/day^2
Epoch rev:             402
Checksum:              281

/EX
SB KEPS @ AMSAT  $ORB10014.D
Orbital Elements  10014.MICROS

HR AMSAT ORBITAL ELEMENTS FOR THE MICROSATS
FROM WA5QGD FORT WORTH,TX January 14, 2010
Send Subscribe/unsubscribe to KEPS at 
http://www.amsat.org/mailman/listinfo/keps
BID: ORB10014.D
TO ALL RADIO AMATEURS BT

Satellite: UO-11
Catalog number: 14781
Epoch time:      10013.71714850
Element set:     150
Inclination:      098.0794 deg
RA of node:       064.8122 deg
Eccentricity:    0.0009385
Arg of perigee:   024.1423 deg
Mean anomaly:     336.0231 deg
Mean motion:   14.79761075 rev/day
Decay rate:       2.99e-06 rev/day^2
Epoch rev:           38896
Checksum:              297

Satellite: AO-16
Catalog number: 20439
Epoch time:      10013.54502199
Element set:    0798
Inclination:      098.3109 deg
RA of node:       337.7170 deg
Eccentricity:    0.0010012
Arg of perigee:   266.0824 deg
Mean anomaly:     093.9212 deg
Mean motion:   14.31844934 rev/day
Decay rate:        1.3e-07 rev/day^2
Epoch rev:           04325
Checksum:              275

Satellite: LO-19
Catalog number: 20442
Epoch time:      10013.84718361
Element set:     707
Inclination:      098.2717 deg
RA of node:       344.4348 deg
Eccentricity:    0.0010977
Arg of perigee:   259.5215 deg
Mean anomaly:     100.4728 deg
Mean motion:   14.32078299 rev/day
Decay rate:       -3.0e-08 rev/day^2
Epoch rev:            4346
Checksum:              296

Satellite: AO-27
Catalog number: 22825
Epoch time:      10014.77267137
Element set:     433
Inclination:      098.4677 deg
RA of node:       326.8467 deg
Eccentricity:    0.0008370
Arg of perigee:   007.9019 deg
Mean anomaly:     352.2295 deg
Mean motion:   14.29282890 rev/day
Decay rate:      -1.20e-06 rev/day^2
Epoch rev:           85013
Checksum:              309

Satellite: IO-26
Catalog number: 22826
Epoch time:      10013.81558029
Element set:    0168
Inclination:      098.4591 deg
RA of node:       326.5775 deg
Eccentricity:    0.0009072
Arg of perigee:   005.1576 deg
Mean anomaly:     354.9709 deg
Mean motion:   14.29537424 rev/day
Decay rate:        3.0e-08 rev/day^2
Epoch rev:           85010
Checksum:              306

Satellite: GO-32
Catalog number: 25397
Epoch time:      10014.55342893
Element set:      87
Inclination:      098.3164 deg
RA of node:       030.4442 deg
Eccentricity:    0.0001476
Arg of perigee:   032.6796 deg
Mean anomaly:     327.4464 deg
Mean motion:   14.23169549 rev/day
Decay rate:       -2.9e-07 rev/day^2
Epoch rev:           59819
Checksum:              319

Satellite: NO-44
Catalog number: 26931
Epoch time:      10014.63969060
Element set:     361
Inclination:      067.0518 deg
RA of node:       239.5749 deg
Eccentricity:    0.0006793
Arg of perigee:   267.4052 deg
Mean anomaly:     092.6287 deg
Mean motion:   14.29578988 rev/day
Decay rate:        2.1e-07 rev/day^2
Epoch rev:           43280
Checksum:              327

Satellite: SO-50
Catalog number: 27607
Epoch time:      10014.68935134
Element set:      78
Inclination:      064.5587 deg
RA of node:       102.7312 deg
Eccentricity:    0.0042268
Arg of perigee:   145.8026 deg
Mean anomaly:     214.5817 deg
Mean motion:   14.71490377 rev/day
Decay rate:       1.15e-06 rev/day^2
Epoch rev:           37979
Checksum:              309

Satellite: CO-55
Catalog number: 27844
Epoch time:      10013.57654836
Element set:     756
Inclination:      098.7112 deg
RA of node:       024.7586 deg
Eccentricity:    0.0009157
Arg of perigee:   257.8866 deg
Mean anomaly:     102.1292 deg
Mean motion:   14.20677674 rev/day
Decay rate:        2.2e-07 rev/day^2
Epoch rev:           33913
Checksum:              321

Satellite: CO-57
Catalog number: 27848
Epoch time:      10014.71078223
Element set:     707
Inclination:      098.7180 deg
RA of node:       024.9507 deg
Eccentricity:    0.0008851
Arg of perigee:   256.4498 deg
Mean anomaly:     103.5689 deg
Mean motion:   14.20474757 rev/day
Decay rate:        3.6e-07 rev/day^2
Epoch rev:           33925
Checksum:              326

Satellite: AO-51
Catalog number: 28375
Epoch time:      10013.54749693
Element set:    0580
Inclination:      098.0537 deg
RA of node:       015.9147 deg
Eccentricity:    0.0082990
Arg of perigee:   206.4886 deg
Mean anomaly:     153.2051 deg
Mean motion:   14.40665278 rev/day
Decay rate:        6.0e-08 rev/day^2
Epoch rev:           29124
Checksum:              313

Satellite: CO-56
Catalog number: 28941
Epoch time:      09297.68475575
Element set:     556
Inclination:      098.0955 deg
RA of node:       138.9518 deg
Eccentricity:    0.0011688
Arg of perigee:   319.8691 deg
Mean anomaly:     040.7485 deg
Mean motion:   16.46998778 rev/day
Decay rate:  1.4491492e-01 rev/day^2
Epoch rev:           20790
Checksum:              407

Satellite: GENESAT1
Catalog number: 29655
Epoch time:      10013.94410887
Element set:    0916
Inclination:      040.0193 deg
RA of node:       297.4037 deg
Eccentricity:    0.0006828
Arg of perigee:   282.6308 deg
Mean anomaly:     077.3816 deg
Mean motion:   15.72273575 rev/day
Decay rate:     2.9612e-04 rev/day^2
Epoch rev:           17557
Checksum:              320

Satellite: CP3
Catalog number: 31129
Epoch time:      10014.63677287
Element set:     470
Inclination:      097.9631 deg
RA of node:       062.2667 deg
Eccentricity:    0.0102245
Arg of perigee:   350.7489 deg
Mean anomaly:     009.1818 deg
Mean motion:   14.52199852 rev/day
Decay rate:       1.15e-06 rev/day^2
Epoch rev:           14557
Checksum:              307

Satellite: CO-65
Catalog number: 32785
Epoch time:      10014.72514359
Element set:     578
Inclination:      097.9183 deg
RA of node:       081.6327 deg
Eccentricity:    0.0016084
Arg of perigee:   065.3129 deg
Mean anomaly:     294.9768 deg
Mean motion:   14.81566738 rev/day
Decay rate:      -1.75e-06 rev/day^2
Epoch rev:            9276
Checksum:              349

Satellite: KKS-1
Catalog number: 33493
Epoch time:      10014.74271897
Element set:     117
Inclination:      098.0699 deg
RA of node:       133.1084 deg
Eccentricity:    0.0018888
Arg of perigee:   278.3288 deg
Mean anomaly:     081.5796 deg
Mean motion:   14.80820214 rev/day
Decay rate:       3.15e-06 rev/day^2
Epoch rev:            5277
Checksum:              321

Satellite: SOHLA-1
Catalog number: 33496
Epoch time:      10013.79598385
Element set:    0001
Inclination:      098.0478 deg
RA of node:       124.9936 deg
Eccentricity:    0.0006103
Arg of perigee:   342.8498 deg
Mean anomaly:     017.2514 deg
Mean motion:   14.69462862 rev/day
Decay rate:       -8.1e-07 rev/day^2
Epoch rev:           05220
Checksum:              302

/EX
SB KEPS @ AMSAT  $ORB10014.W
Orbital Elements  10014.WEATHER

HR AMSAT ORBITAL ELEMENTS FOR WEATHER SATELLITES
FROM WA5QGD FORT WORTH,TX January 14, 2010
Send Subscribe/unsubscribe to KEPS at 
http://www.amsat.org/mailman/listinfo/keps
BID: ORB10014.W
TO ALL RADIO AMATEURS BT

